Weather in Zawiyah

Libya     32°45′37″N   12°43′34″E
temp.,
°C
wind,
m/s
gust,
m/s
humid.,
%
clouds,
%
prec.,
mm/h
press.,
hPa
HPBL,
m
13 april, tue
tue1323:00+19wsw1012730 0.0 1015373
02:00+17w810815 0.0 1016462
05:00+16nnw798588 0.0 1017641
08:00+16n7981100 0.0 1020738
11:00+17n8975100 0.1 1022924
14:00+18n8971100 0.1 1022972
17:00+16n886295 0.0 1021738
20:00+16n66655 0.0 1022766
14 april, wed
wed1423:00+15nne356393 0.0 1023674
02:00+15n346171 0.0 1022458
05:00+15nnw34628 0.0 1021453
08:00+15nnw346072 0.0 1022623
11:00+16n445698 0.0 1022598
14:00+18nne435198 0.0 1021601
17:00+17ne6653100 0.0 1019509
20:00+17ene6756100 0.0 1019436
15 april, thu
thu1523:00+16e675965 0.0 1019340
02:00+16e5855100 0.0 1018256
05:00+16e5750100 0.0 1016182
08:00+17e464513 0.0 1017181
11:00+23ese463195 0.0 1016504
14:00+26ene353062 0.0 10131179
17:00+27ese4625100 0.0 10091355
20:00+25ese71127100 0.0 1009447
16 april, fri
fri1623:00+20ese1219459 0.0 1009446
02:00+18ese142153100 0.0 1007526
05:00+19ese121647100 0.0 1003355
08:00+21ese5635100 0.0 1002174
11:00+30sw71119100 0.0 1000684
14:00+36wsw12181098 0.0 9973174
17:00+33w101617100 0.0 9962768
20:00+20wnw915670 0.0 1001449
17 april, sat
sat1723:00+19wnw915700 0.0 1006794
02:00+17wnw711770 0.0 1007756
05:00+16nw798171 0.0 1008677
08:00+16n6676100 0.1 1011818
11:00+17ne546999 0.1 1012822
14:00+18nne54607 0.1 1012698
17:00+18ne54600 0.0 1011630
20:00+16ne89685 0.0 1010558